+43 3833 8250 0 office@segelflug.at

Wetter

ACHTUNG: Die hier angeboten Wetter-Informationen sind nicht geeicht und dürfen für Flugvorbereitungen nicht verwendet werden ACG Flugwetter

METAR/TAF LOXZ

LOXZ 201450Z 36002KT 40KM FEW060CU 16/01 Q1025 NOSIG

TAF LOXZ 181415Z 1812/1824 CNL

METAR/TAF LOXA

LOXA 100820Z VRB02KT 50KM FEW120AC SCT300CI 17/13 Q1021 NOSIG RMK SCT

TAF TAF LOXA 090515Z 0906/0918 VRB03KT 0500 FG SCT060 BECMG 0906/0908 9999 NSW FEW060 BECMG 0909/0911 04007KT TEMPO 0910/0915 SCT060 BKN100

METAR/TAF LOWG 

LOWG 201620Z 14005KT 100V160 CAVOK 15/02 Q1026 NOSIG

TAF LOWG 201115Z 2012/2112 VRB02KT 9999 FEW050 TX17/2112Z TN04/2104Z TEMPO 2012/2016 13007KT PROB40 TEMPO 2102/2106 0800 BCFG FEW001

(Information der letzten Stunde)

(Information der letzten Stunde)

Dichtehöhe (in LOGT)
Temperatur / Windchill der letzten 10 Tage

Ext. Links zu Wetterdiensten

ALDIS

Öster.- Unwetterzentrale